Location: *
(43.0167°S, 179.9000°E)
Time: 20:39:57
(UTC+00:00)

Meteor 1-31 Rocket - Pass Details

Date: 12 August 2024
Orbit: 487 x 511 km, 97.7° (Epoch: 19 September)

Event Time Altitude Azimuth Distance (km) Brightness Sun altitude
Rises 18:00:32 0° 15° (NNE) 2,561 6.6 -10.8°
Reaches altitude 10° 18:02:35 10° 15° (NNE) 1,687 5.7 -10.4°
Maximum altitude 18:06:12 86° 101° (E) 505 2.6 -9.8°
Drops below altitude 10° 18:09:54 10° 192° (SSW) 1,715 5.1 -9.1°
Sets 18:12:00 0° 192° (SSW) 2,609 6.0 -8.7°
